DW6743 Weather Reports


time (UTC)temp
F
wind
direction
speed
knots
gust
knots
rain 1hr
in
rain 24hr
in
rain mn
in
humidity
%
barometer
mb
20260508131804 57 293 7.8 11.3 0.00 0.00 0.00 68 1023.3
20260508131607 57 303 8.7 13.0 0.00 0.00 0.00 67 1023.3
20260508131304 57 300 10.4 11.3 0.00 0.00 0.00 67 1023.3
20260508130304 56 286 11.3 15.6 0.00 0.00 0.00 68 1023.5
20260508130059 56 294 10.4 15.6 0.00 0.00 0.00 67 1023.5
20260508124804 56 284 9.6 12.2 0.00 0.00 0.00 68 1023.5
20260508124559 56 284 9.6 12.2 0.00 0.00 0.00 67 1023.4
20260508124304 57 290 10.4 12.2 0.00 0.00 0.00 66 1023.5
20260508123803 57 279 8.7 11.3 0.00 0.00 0.00 64 1023.5
20260508123304 57 285 8.7 15.6 0.00 0.00 0.00 65 1023.4
20260508123116 56 285 9.6 15.6 0.00 0.00 0.00 66 1023.4
20260508121804 57 299 11.3 13.9 0.00 0.00 0.00 65 1023.4
20260508121610 56 289 11.3 15.6 0.00 0.00 0.00 65 1023.4
20260508121304 57 303 11.3 13.0 0.00 0.00 0.00 64 1023.4
20260508120804 57 297 11.3 14.8 0.00 0.00 0.00 61 1023.5
20260508120304 57 296 10.4 14.8 0.00 0.00 0.00 61 1023.4
20260508120111 57 306 9.6 14.8 0.00 0.00 0.00 61 1023.4
20260508114804 58 273 10.4 13.0 0.00 0.00 0.00 56 1023.4
20260508114602 58 285 10.4 13.0 0.00 0.00 0.00 56 1023.3
20260508114304 58 297 10.4 13.0 0.00 0.00 0.00 57 1023.3
20260508113804 58 305 9.6 13.0 0.00 0.00 0.00 54 1023.2
20260508113304 58 286 9.6 15.6 0.00 0.00 0.00 51 1023.2
20260508113108 58 291 9.6 14.8 0.00 0.00 0.00 50 1023.2
20260508111804 57 271 11.3 17.4 0.00 0.00 0.00 55 1023.2
20260508111559 57 302 12.2 17.4 0.00 0.00 0.00 56 1023.2
20260508111304 57 277 12.2 14.8 0.00 0.00 0.00 59 1023.1
20260508110804 58 277 11.3 17.4 0.00 0.00 0.00 58 1023.0
20260508110304 58 261 9.6 15.6 0.00 0.00 0.00 60 1023.0
20260508110107 57 258 9.6 14.8 0.00 0.00 0.00 60 1023.0
20260508104804 57 277 8.7 13.9 0.00 0.00 0.00 63 1023.0
20260508104559 57 291 7.8 13.0 0.00 0.00 0.00 63 1022.9
20260508103108 56 295 11.3 13.9 0.00 0.00 0.00 65 1022.9
20260508101804 59 299 8.7 11.3 0.00 0.00 0.00 60 1022.9
20260508101559 59 310 9.6 11.3 0.00 0.00 0.00 60 1022.9
20260508101304 60 296 8.7 11.3 0.00 0.00 0.00 58 1022.8
20260508100804 62 290 6.1 8.7 0.00 0.00 0.00 50 1022.8
20260508100304 62 234 7.8 13.0 0.00 0.00 0.00 40 1022.8
20260508100058 62 204 8.7 13.0 0.00 0.00 0.00 40 1022.7
20260508094804 61 162 1.7 7.8 0.00 0.00 0.00 41 1022.7
20260508094555 61 157 4.3 14.8 0.00 0.00 0.00 40 1022.6
20260508094304 62 164 6.1 11.3 0.00 0.00 0.00 40 1022.7
20260508093804 61 206 11.3 14.8 0.00 0.00 0.00 40 1022.7
20260508093304 61 193 7.0 11.3 0.00 0.00 0.00 42 1022.6
20260508093106 60 165 2.6 10.4 0.00 0.00 0.00 41 1022.6
20260508091804 60 219 4.3 7.8 0.00 0.00 0.00 42 1022.7
20260508091557 60 233 4.3 10.4 0.00 0.00 0.00 43 1022.6
20260508091304 60 181 6.1 10.4 0.00 0.00 0.00 44 1022.7
20260508090804 60 209 6.1 8.7 0.00 0.00 0.00 42 1022.8
20260508090304 60 213 4.3 10.4 0.00 0.00 0.00 44 1022.7
20260508090106 59 163 3.5 10.4 0.00 0.00 0.00 43 1022.7
20260508084804 59 179 4.3 8.7 0.00 0.00 0.00 45 1022.8
20260508084559 58 169 5.2 9.6 0.00 0.00 0.00 44 1022.8
20260508084304 59 206 5.2 10.4 0.00 0.00 0.00 45 1022.8
20260508083804 58 177 4.3 8.7 0.00 0.00 0.00 46 1022.8
20260508083304 58 180 5.2 10.4 0.00 0.00 0.00 48 1022.8
20260508083057 57 209 6.1 10.4 0.00 0.00 0.00 48 1022.6
20260508081804 57 178 5.2 8.7 0.00 0.00 0.00 49 1022.7
20260508081601 56 178 4.3 12.2 0.00 0.00 0.00 49 1022.7
20260508080804 57 179 7.8 11.3 0.00 0.00 0.00 48 1022.8
20260508080054 56 175 6.1 10.4 0.00 0.00 0.00 50 1022.7
20260508074804 57 169 6.1 10.4 0.00 0.00 0.00 48 1022.7
20260508074556 56 177 5.2 9.6 0.00 0.00 0.00 48 1022.6
20260508074304 57 179 3.5 7.0 0.00 0.00 0.00 48 1022.7
20260508073304 56 176 2.6 7.8 0.00 0.00 0.00 49 1022.7
20260508073056 56 204 3.5 7.8 0.00 0.00 0.00 48 1022.6
20260508071555 56 177 1.7 4.3 0.00 0.00 0.00 48 1022.5
20260508071304 56 197 2.6 4.3 0.00 0.00 0.00 49 1022.6
20260508070804 56 190 0.9 2.6 0.00 0.00 0.00 48 1022.5
20260508070305 56 190 0.9 4.3 0.00 0.00 0.00 47 1022.5
20260508070057 55 0 0.0 5.2 0.00 0.00 0.00 46 1022.5
20260508064804 54 123 0.9 2.6 0.00 0.00 0.00 51 1022.3
20260508064555 53 123 0.9 2.6 0.00 0.00 0.00 51 1022.3
20260508064304 53 123 0.9 2.6 0.00 0.00 0.00 52 1022.3
20260508063804 53 161 0.0 1.7 0.00 0.00 0.00 52 1022.3
20260508063305 53 161 0.9 2.6 0.00 0.00 0.00 52 1022.3
20260508063104 52 161 0.0 2.6 0.00 0.00 0.00 52 1022.3
20260508061804 53 161 1.7 2.6 0.00 0.00 0.00 51 1022.2
20260508061556 52 161 0.0 4.3 0.00 0.00 0.00 51 1022.2
20260508061304 53 161 0.9 1.7 0.00 0.00 0.00 51 1022.2
20260508060805 52 161 0.0 1.7 0.00 0.00 0.00 52 1022.1
20260508060304 51 161 0.9 4.3 0.00 0.00 0.00 53 1022.1
20260508060056 51 161 0.9 4.3 0.00 0.00 0.00 53 1022.0
20260508054600 49 125 0.0 4.3 0.00 0.00 0.00 57 1022.0
20260508054304 49 125 0.9 2.6 0.00 0.00 0.00 60 1022.0
20260508053804 48 123 1.7 2.6 0.00 0.00 0.00 64 1022.0
20260508053304 47 121 0.9 7.0 0.00 0.00 0.00 66 1022.0
20260508053108 46 121 2.6 7.0 0.00 0.00 0.00 66 1021.9
20260508051804 43 125 0.9 2.6 0.00 0.00 0.00 72 1021.9
20260508051556 42 0 0.0 6.1 0.00 0.00 0.00 72 1021.8
20260508051304 42 125 1.7 4.3 0.00 0.00 0.00 73 1021.8
20260508050804 41 125 2.6 6.1 0.00 0.00 0.00 73 1021.8
20260508044804 39 118 2.6 6.1 0.00 0.00 0.00 74 1021.8
20260508044558 39 132 2.6 6.1 0.00 0.00 0.00 74 1021.7
20260508044304 39 128 2.6 6.1 0.00 0.00 0.00 75 1021.8
20260508043804 39 132 2.6 4.3 0.00 0.00 0.00 75 1021.7
20260508043304 38 147 2.6 6.1 0.00 0.00 0.00 75 1021.7
20260508043104 38 0 2.6 6.1 0.00 0.00 0.00 75 1021.6
20260508041804 37 133 1.7 4.3 0.00 0.00 0.00 76 1021.6
20260508041601 37 138 1.7 5.2 0.00 0.00 0.00 75 1021.6
20260508041304 37 155 1.7 5.2 0.00 0.00 0.00 76 1021.7
20260508040804 37 151 3.5 5.2 0.00 0.00 0.00 76 1021.6
20260508040058 36 156 3.5 7.8 0.00 0.00 0.00 76 1021.6
20260508034804 36 177 6.1 7.8 0.00 0.00 0.00 77 1021.5
20260508034612 35 172 6.1 7.8 0.00 0.00 0.00 77 1021.5
20260508034304 35 159 5.2 7.8 0.00 0.00 0.00 78 1021.4
20260508033805 35 139 3.5 7.0 0.00 0.00 0.00 77 1021.3
20260508033304 35 128 4.3 8.7 0.00 0.00 0.00 77 1021.3
20260508033102 34 148 3.5 8.7 0.00 0.00 0.00 77 1021.2
20260508031804 35 112 7.8 10.4 0.00 0.00 0.00 77 1021.1
20260508031556 34 113 7.0 8.7 0.00 0.00 0.00 77 1021.1
20260508030804 35 111 7.8 8.7 0.00 0.00 0.00 77 1021.1
20260508030059 34 104 7.0 8.7 0.00 0.00 0.00 76 1021.1
20260508024556 35 110 7.8 9.6 0.00 0.00 0.00 77 1020.9
20260508024304 35 107 7.8 10.4 0.00 0.00 0.00 77 1021.0
20260508023304 35 106 7.8 8.7 0.00 0.00 0.00 76 1020.9
20260508023056 35 104 7.0 8.7 0.00 0.00 0.00 76 1020.9
20260508021804 35 111 6.1 8.7 0.00 0.00 0.00 77 1020.9
20260508021605 35 113 4.3 7.0 0.00 0.00 0.00 76 1020.8
20260508021304 35 115 5.2 7.0 0.00 0.00 0.00 76 1020.9
20260508020804 36 110 5.2 7.0 0.00 0.00 0.00 76 1020.8
20260508020304 36 114 6.1 7.8 0.00 0.00 0.00 76 1020.8
20260508014557 35 102 5.2 7.8 0.00 0.00 0.00 76 1020.6
20260508014304 36 102 6.1 7.0 0.00 0.00 0.00 76 1020.7
20260508013804 36 107 7.0 7.8 0.00 0.00 0.00 76 1020.7
20260508013100 36 109 7.0 8.7 0.00 0.00 0.00 76 1020.6
20260508011804 36 119 7.0 7.8 0.00 0.00 0.00 76 1020.6
20260508011604 36 120 6.1 9.6 0.00 0.00 0.00 75 1020.5
20260508011304 36 120 7.0 10.4 0.00 0.00 0.00 76 1020.6
20260508010804 36 117 8.7 10.4 0.00 0.00 0.00 76 1020.6
20260508010304 37 119 7.8 10.4 0.00 0.00 0.00 75 1020.5
20260508010056 36 121 7.0 8.7 0.00 0.00 0.00 75 1020.5
20260508004804 37 122 6.1 7.8 0.00 0.00 0.00 75 1020.5
20260508004557 37 123 6.1 7.8 0.00 0.00 0.00 74 1020.4
20260508004304 37 120 6.1 7.8 0.00 0.00 0.00 75 1020.4
20260508003804 37 119 6.1 7.0 0.00 0.00 0.00 75 1020.4
20260508003304 37 115 6.1 8.7 0.00 0.00 0.00 75 1020.3
20260508003059 37 114 6.1 8.7 0.00 0.00 0.00 74 1020.2
20260508001804 38 116 7.0 8.7 0.00 0.00 0.00 74 1020.2
20260508001617 37 116 7.0 7.8 0.00 0.00 0.00 74 1020.1
20260508000804 38 116 6.1 7.0 0.00 0.00 0.00 74 1020.2
20260508000305 38 115 5.2 7.8 0.00 0.00 0.00 74 1020.3
20260508000058 38 114 6.1 7.8 0.00 0.00 0.00 74 1020.2
20260507234804 38 115 6.1 7.8 0.00 0.00 0.00 74 1020.1
20260507234558 38 116 6.1 8.7 0.00 0.00 0.00 73 1020.1
20260507234304 38 119 7.0 7.8 0.00 0.00 0.00 73 1020.1
20260507233804 38 119 7.0 8.7 0.00 0.00 0.00 73 1020.1
20260507233304 39 114 7.8 10.4 0.00 0.00 0.00 73 1020.1
20260507233057 38 115 7.0 8.7 0.00 0.00 0.00 72 1020.0
20260507231559 39 118 6.1 9.6 0.00 0.00 0.00 72 1019.9
20260507231304 39 117 6.1 8.7 0.00 0.00 0.00 72 1020.0
20260507230804 39 119 6.1 8.7 0.00 0.00 0.00 72 1020.0
20260507230058 39 121 4.3 7.0 0.00 0.00 0.00 71 1020.0
20260507224804 40 104 6.1 7.0 0.00 0.00 0.00 70 1019.9
20260507224601 40 102 5.2 7.0 0.00 0.00 0.00 69 1019.9
20260507224304 41 100 4.3 6.1 0.00 0.00 0.00 69 1019.8
20260507223804 41 100 4.3 7.0 0.00 0.00 0.00 68 1019.9
20260507223304 41 104 5.2 7.8 0.00 0.00 0.00 68 1019.9
20260507223058 40 106 5.2 7.8 0.00 0.00 0.00 67 1019.8
20260507221804 41 92 5.2 6.1 0.00 0.00 0.00 68 1019.9
20260507221559 41 93 3.5 7.8 0.00 0.00 0.00 68 1019.8
20260507221304 41 93 4.3 7.0 0.00 0.00 0.00 68 1019.8
20260507220826 42 92 6.1 7.8 0.00 0.00 0.00 68 1019.8
20260507220304 42 102 6.1 7.8 0.00 0.00 0.00 68 1019.9
20260507220059 41 102 5.2 7.8 0.00 0.00 0.00 67 1019.8
20260507214804 42 89 4.3 7.0 0.00 0.00 0.00 67 1019.7
20260507214602 42 90 4.3 8.7 0.00 0.00 0.00 67 1019.7
20260507214304 42 85 5.2 7.8 0.00 0.00 0.00 67 1019.7
20260507213804 43 88 5.2 8.7 0.00 0.00 0.00 67 1019.6
20260507213304 43 91 5.2 8.7 0.00 0.00 0.00 67 1019.6
20260507213057 42 97 4.3 8.7 0.00 0.00 0.00 66 1019.6
20260507211558 43 90 4.3 8.7 0.00 0.00 0.00 67 1019.5
20260507211304 43 96 4.3 7.0 0.00 0.00 0.00 68 1019.5
20260507210304 43 91 5.2 7.8 0.00 0.00 0.00 68 1019.4
20260507210058 43 91 5.2 7.8 0.00 0.00 0.00 67 1019.4
20260507204804 44 90 5.2 7.8 0.00 0.00 0.00 66 1019.3
20260507204600 44 91 4.3 7.8 0.00 0.00 0.00 66 1019.2
20260507204304 45 87 6.1 7.8 0.00 0.00 0.00 66 1019.2
20260507203804 45 84 6.1 7.0 0.00 0.00 0.00 65 1019.1
20260507203304 46 78 6.1 8.7 0.00 0.00 0.00 64 1019.1
20260507203101 45 74 7.0 8.7 0.00 0.00 0.00 63 1019.0
20260507201804 47 75 7.0 7.8 0.00 0.00 0.00 61 1019.1
20260507201610 47 79 7.0 7.8 0.00 0.00 0.00 60 1019.0
20260507201304 48 75 7.0 7.8 0.00 0.00 0.00 60 1019.1
20260507200804 49 71 6.1 7.0 0.00 0.00 0.00 58 1019.1
20260507200304 49 70 5.2 10.4 0.00 0.00 0.00 57 1019.1
20260507200108 49 68 5.2 9.6 0.00 0.00 0.00 56 1018.9
20260507194804 50 62 7.0 8.7 0.00 0.00 0.00 56 1018.9
20260507194557 50 52 6.1 8.7 0.00 0.00 0.00 55 1018.8
20260507194304 51 56 5.2 7.8 0.00 0.00 0.00 55 1018.8
20260507193804 51 50 7.0 8.7 0.00 0.00 0.00 55 1018.8
20260507193304 51 47 5.2 7.8 0.00 0.00 0.00 54 1018.7
20260507193058 51 45 5.2 7.8 0.00 0.00 0.00 54 1018.8
20260507191804 52 41 6.1 8.7 0.00 0.00 0.00 53 1018.5
20260507191558 51 41 5.2 10.4 0.00 0.00 0.00 53 1018.5
20260507190804 52 41 7.8 10.4 0.00 0.00 0.00 52 1018.4
20260507190305 52 41 6.1 10.4 0.00 0.00 0.00 51 1018.4
20260507190057 52 43 7.0 11.3 0.00 0.00 0.00 51 1018.3
20260507184804 53 45 7.8 10.4 0.00 0.00 0.00 51 1018.2
20260507184603 52 50 6.1 11.3 0.00 0.00 0.00 51 1018.1
20260507184304 53 39 7.0 10.4 0.00 0.00 0.00 51 1018.0
20260507183804 54 46 7.8 11.3 0.00 0.00 0.00 49 1018.0
20260507183305 54 45 7.8 12.2 0.00 0.00 0.00 48 1018.0
20260507183055 53 48 5.2 9.6 0.00 0.00 0.00 47 1017.9
20260507181603 54 44 5.2 12.2 0.00 0.00 0.00 45 1017.7
20260507181304 55 49 7.0 12.2 0.00 0.00 0.00 46 1017.8
20260507180804 55 44 7.8 11.3 0.00 0.00 0.00 45 1017.7
20260507180057 55 29 5.2 11.3 0.00 0.00 0.00 43 1017.7
20260507174804 55 46 10.4 13.0 0.00 0.00 0.00 46 1017.5
20260507174606 55 36 8.7 12.2 0.00 0.00 0.00 45 1017.6
20260507174304 55 48 10.4 12.2 0.00 0.00 0.00 44 1017.6
20260507173804 56 42 8.7 12.2 0.00 0.00 0.00 44 1017.6
20260507173304 56 40 8.7 12.2 0.00 0.00 0.00 42 1017.5
20260507173055 55 38 7.8 13.0 0.00 0.00 0.00 42 1017.6
20260507171804 55 35 8.7 12.2 0.00 0.00 0.00 40 1017.5
20260507171602 55 51 8.7 12.2 0.00 0.00 0.00 40 1017.4
20260507171304 55 36 7.0 10.4 0.00 0.00 0.00 41 1017.5
20260507170804 56 32 7.8 12.2 0.00 0.00 0.00 41 1017.4
20260507170304 56 29 9.6 12.2 0.00 0.00 0.00 43 1017.4
20260507170055 55 40 7.8 12.2 0.00 0.00 0.00 43 1017.4
20260507164804 56 44 6.1 12.2 0.00 0.00 0.00 44 1017.4
20260507164557 55 10 7.0 12.2 0.00 0.00 0.00 43 1017.4
20260507164304 56 37 5.2 8.7 0.00 0.00 0.00 43 1017.4
20260507163804 56 28 6.1 10.4 0.00 0.00 0.00 41 1017.4
20260507163304 56 47 7.8 13.0 0.00 0.00 0.00 42 1017.3
20260507163059 55 21 4.3 13.0 0.00 0.00 0.00 41 1017.3
20260507161804 56 24 8.7 12.2 0.00 0.00 0.00 40 1017.4
20260507161558 56 14 7.0 11.3 0.00 0.00 0.00 40 1017.3
20260507161304 56 34 7.8 10.4 0.00 0.00 0.00 41 1017.4
20260507160804 56 25 6.1 11.3 0.00 0.00 0.00 42 1017.4
20260507160304 56 29 8.7 13.0 0.00 0.00 0.00 41 1017.5
20260507160058 55 28 7.0 13.0 0.00 0.00 0.00 41 1017.5
20260507154804 56 28 10.4 13.0 0.00 0.00 0.00 43 1017.4
20260507154604 55 29 9.6 13.0 0.00 0.00 0.00 43 1017.2
20260507154304 55 34 10.4 12.2 0.00 0.00 0.00 43 1017.3
20260507153804 55 21 10.4 13.0 0.00 0.00 0.00 43 1017.5
20260507153304 56 14 12.2 15.6 0.00 0.00 0.00 45 1017.4
20260507153102 55 14 9.6 15.6 0.00 0.00 0.00 44 1017.3
20260507151557 55 26 9.6 14.8 0.00 0.00 0.00 47 1017.2
20260507151304 56 20 7.8 13.0 0.00 0.00 0.00 46 1017.2
20260507150805 56 19 10.4 14.8 0.00 0.00 0.00 48 1017.2
20260507150304 56 19 11.3 13.9 0.00 0.00 0.00 47 1017.3
20260507150059 55 23 10.4 13.9 0.00 0.00 0.00 46 1017.2
20260507144556 55 34 8.7 13.9 0.00 0.00 0.00 45 1017.1
20260507144304 56 4 7.8 12.2 0.00 0.00 0.00 43 1017.3
20260507143804 56 19 8.7 13.0 0.00 0.00 0.00 45 1017.2
20260507143058 55 23 10.4 14.8 0.00 0.00 0.00 50 1017.3
20260507141804 56 10 8.7 13.0 0.00 0.00 0.00 50 1017.4
20260507141557 55 12 7.0 14.8 0.00 0.00 0.00 50 1017.4
20260507141304 55 22 10.4 13.9 0.00 0.00 0.00 51 1017.4
20260507140304 55 19 11.3 13.9 0.00 0.00 0.00 53 1017.3
20260507140104 55 18 9.6 13.0 0.00 0.00 0.00 53 1017.3
20260507134804 55 3 10.4 13.9 0.00 0.00 0.00 55 1017.3
20260507134643 54 6 9.6 13.9 0.00 0.00 0.00 56 1017.3
20260507134304 54 17 11.3 13.9 0.00 0.00 0.00 54 1017.4
20260507133804 54 23 7.8 12.2 0.00 0.00 0.00 53 1017.3
20260507133304 55 25 11.3 15.6 0.00 0.00 0.00 52 1017.4
20260507133106 54 360 7.8 15.6 0.00 0.00 0.00 50 1017.3